Home   Weather   Salina   Past weeks

Flag for USA Past Weather in Salina, Kansas, USA — Yesterday and Last 2 Weeks

Now
43 °F

Scattered clouds.


Feels Like: 36 °F
Forecast: 20 / 42 °F
Wind: 13 mph from South

Location: Salina Municipal Airport

Current Time: Dec 10, 2016 at 4:36:37 pm

Latest Report: Dec 10, 2016 at 3:53 pm


Visibility: 10 mi

Pressure: 30.05 "Hg

Humidity: 47%

Dew Point: 24 °F

Location of SalinaLocation

Past Weather in Salina — Graph

°F

Salina Temperature Yesterday

Maximum temperature yesterday: 29 °F (at 2:53 pm)
Minimum temperature yesterday: 9 °F (at 3:53 am)
Average temperature yesterday: 22 °F

High & Low Weather Summary for the Past Weeks

 TemperatureHumidityPressure
High64 °F (Nov 26, 1:53 pm)97% (Dec 3, 6:53 pm)30.78 "Hg (Dec 3, 6:53 pm)
Low9 °F (Dec 9, 3:53 am)24% (Nov 28, 2:53 pm)29.22 "Hg (Nov 28, 1:53 pm)
Average37 °F66%30.07 "Hg
* Reported Nov 25 2:53 pm — Dec 10 2:53 pm, Salina, Weather by CustomWeather, © 2016

Note: Actual official high and low records may vary slightly from our data, if they occured in-between our weather recording intervals... More about our weather records

Advertising

Salina Weather History for the Previous 24 Hours

Scroll right to see more
 ConditionsComfort  
Time TempWeatherWind HumidityBarometerVisibility
2:53 pm
Sat, Dec 10
42 °FScattered clouds.21 mph47%30.07 "Hg10 mi
1:53 pm42 °FPartly sunny.20 mph45%30.09 "Hg10 mi
12:53 pm42 °FPassing clouds.18 mph45%30.17 "Hg10 mi
11:53 am39 °FOvercast.16 mph48%30.21 "Hg10 mi
10:53 am35 °FOvercast.12 mph52%30.29 "Hg10 mi
9:53 am31 °FOvercast.10 mph59%30.32 "Hg10 mi
8:53 am27 °FOvercast.10 mph66%30.34 "Hg10 mi
7:53 am24 °FSunny.10 mph71%30.35 "Hg10 mi
6:53 am26 °FClear.8 mph69%30.39 "Hg10 mi
5:53 am26 °FClear.8 mph66%30.40 "Hg10 mi
4:53 am25 °FClear.7 mph69%30.40 "Hg10 mi
3:53 am24 °FPassing clouds.8 mph68%30.43 "Hg10 mi
2:53 am24 °FClear.7 mph68%30.45 "Hg10 mi
1:53 am25 °FClear.6 mph69%30.47 "Hg10 mi
12:53 am24 °FClear.6 mph68%30.48 "Hg10 mi
11:53 pm
Fri, Dec 9
25 °FPassing clouds.6 mph66%30.50 "Hg10 mi
10:53 pm28 °FOvercast.8 mph58%30.48 "Hg10 mi
9:53 pm28 °FOvercast.7 mph56%30.49 "Hg10 mi
8:53 pm28 °FOvercast.8 mph58%30.50 "Hg10 mi
7:53 pm28 °FOvercast.7 mph58%30.52 "Hg10 mi
6:53 pm28 °FOvercast.6 mph61%30.53 "Hg10 mi
5:53 pm29 °FOvercast.6 mph54%30.52 "Hg10 mi
4:53 pm29 °FOvercast.12 mph54%30.50 "Hg10 mi
Weather by CustomWeather, © 2016

See weather overviewHow to use our weather pages